#timestamp,LO_Frequency,Hit,StdDev 
1606843195.8,286046978.8,P
1606843215.6,286046975.2,P
1606843235.5,286046972.7,P
1606843255.3,286046976.0,Y
1606843275.1,286046999.5,P
1606843295.9,286046999.3,N
1606843315.7,286046998.5,N
1606843335.5,286046997.0,N
1606843355.4,286046997.9,N
1606843375.2,286046997.8,N
1606843395.1,286046998.0,N
1606843396.0,286046998.0,N
1606843415.8,286046998.0,N
1606843435.6,286046999.5,N
1606843455.5,286046998.5,N
1606843475.3,286046999.0,N
1606843495.1,286046998.8,N
1606843515.9,286046998.4,N
1606843535.7,286046996.9,N
1606843555.6,286046994.9,N
1606843575.4,286046994.7,N
1606843595.2,286046992.9,N
1606843615.1,286046992.9,N
1606843616.0,286046992.9,N
1606843635.8,286046990.9,N
1606843655.6,286046992.0,N
1606843675.5,286046993.5,N
1606843695.3,286046997.4,N
1606843715.2,286046996.7,N
1606843735.9,286046999.2,N
1606843755.7,286046998.3,N
1606843775.6,286046998.8,N
1606843795.4,286046998.3,N
1606843815.2,286046996.5,N
1606843835.1,286046995.5,N
1606843836.0,286046995.5,N
1606843855.8,286046995.9,N
1606843905.7,286046991.6,E
1606843915.6,286046994.6,N
1606843935.5,286046998.3,P
1606843955.3,286046998.5,N
1606843975.1,286046998.6,N
1606843995.9,286046999.3,N
1606844015.7,286046999.4,N
1606844035.5,286046999.5,N
1606844055.4,286046999.5,N
1606844075.2,286046998.9,N
1606844095.1,286047000.1,N
1606844096.0,286047000.1,N
1606844115.8,286047002.2,N
1606844135.6,286047002.8,N
1606844155.5,286046996.9,N
1606844175.3,286046995.1,N
1606844195.1,286046992.3,Y
1606844215.9,286046992.6,P
1606844235.7,286046991.7,N
1606844255.6,286046992.4,N
1606844275.4,286046992.6,N
1606844295.2,286046993.4,N
1606844315.1,286046997.8,N
1606844316.0,286046997.8,N
1606844335.8,286046994.6,N
1606844355.6,286046992.0,Y
1606844375.5,286046997.2,P
1606844395.3,286046999.1,N
1606844415.2,286046999.2,N
1606844435.9,286047002.4,N
1606844455.7,286047002.5,N
1606844475.6,286047004.2,N
1606844495.4,286047001.5,N
1606844515.2,286047002.1,N
1606844535.1,286047000.2,N
1606844536.0,286047000.2,N
1606844555.8,286047000.5,N
1606844575.7,286047000.2,N
1606844595.5,286047000.9,N
1606844615.3,286046996.7,N
1606844635.2,286046997.3,N
1606844655.0,286046998.3,N
1606844655.9,286046998.3,N
1606844675.8,286046999.5,N
1606844695.6,286046999.3,N
1606844715.4,286046995.0,N
1606844735.3,286046995.9,N
1606844755.1,286046995.9,N
1606844775.8,286046993.6,N
1606844795.7,286046997.6,N
1606844815.5,286046995.3,N
1606844835.4,286046994.5,N
1606844855.2,286046996.2,N
1606844875.0,286046996.1,N
1606844875.9,286046996.1,N
1606844895.8,286046994.9,N
1606844915.6,286046994.7,N
1606844935.4,286046996.0,N
1606844955.3,286046991.8,N
1606844975.1,286046990.8,Y
1606844995.9,286046992.5,P
1606845015.7,286046989.2,P
1606845035.5,286046985.4,P
1606845055.4,286046986.7,N
1606845075.2,286046984.2,Y
1606845095.0,286046993.9,P
1606845096.0,286046993.9,P
1606845115.8,286046997.9,N
1606845135.6,286046994.9,N
1606845155.5,286046996.1,N
1606845175.3,286046995.9,N
1606845195.1,286046996.2,N
1606845215.9,286046994.6,N
1606845235.7,286046992.7,Y
1606845255.6,286046999.2,P
1606845275.4,286046996.6,N
1606845295.2,286046997.2,N
1606845315.1,286046997.4,N
1606845316.0,286046997.4,N
1606845335.8,286046999.4,N
1606845355.6,286046998.4,N
1606845375.5,286047002.6,N
1606845395.3,286047000.6,N
1606845415.1,286046997.3,N
1606845435.9,286046999.1,N
1606845455.7,286046998.4,N
1606845475.6,286046996.5,N
1606845495.4,286046997.3,N
1606845515.2,286046995.1,N
1606845535.1,286046995.5,N
1606845536.0,286046995.5,N
1606845555.8,286046997.2,N
1606845575.6,286046996.4,N
1606845595.5,286046996.3,N
